Regional Weather Roundup
Issued by NWS

Home | Current Version | Previous Version | Graphics & Text | Print | Product List | Glossary On
Versions: 1 2 3 4 5 6 7 8 9 10 11 12 13 14 15 16 17 18 19 20 21 22 23 24 25 26 27 28 29 30 31 32 33 34 35 36 37 38 39 40 41 42 43 44 45 46 47 48 49 50
000
ASUS43 KLOT 241200
RWRIL

ILLINOIS REGIONAL WEATHER ROUNDUP
NATIONAL WEATHER SERVICE CHICAGO/ROMEOVILLE IL
700 AM CDT FRI OCT 24 2014

NOTE: "FAIR" INDICATES FEW OR NO CLOUDS BELOW 12,000 FEET WITH NO
SIGNIFICANT WEATHER AND/OR OBSTRUCTIONS TO VISIBILITY.

* THESE STATIONS ARE NOT UNDER NWS QUALITY CONTROL. THEY ALSO MAY NOT
  REPORT WEATHER SUCH AS PRECIPITATION OR FOG.

ILZ001-002-007-009-015-016-024-241300-
NORTHWEST ILLINOIS

CITY           SKY/WX    TMP DP  RH WIND       PRES   REMARKS
MOLINE         FOG       50  49  96 E3        30.05F VSB 3/4
6HR MIN TEMP:  40; 6HR MAX TEMP:  50;

STERLING*      CLOUDY    41  37  87 CALM      30.06F VSB 3/4
$$

ILZ003-004-008-010-011-017-018-241300-
NORTH CENTRAL ILLINOIS

CITY           SKY/WX    TMP DP  RH WIND       PRES   REMARKS
ROCKFORD       FOG       47  45  93 CALM      30.08S VSB 1
6HR MIN TEMP:  39; 6HR MAX TEMP:  47;

$$

ILZ005-006-012>014-019>023-241300-
NORTHEAST ILLINOIS

CITY           SKY/WX    TMP DP  RH WIND       PRES   REMARKS
CHICAGO-OHARE  CLOUDY    53  45  74 W3        30.04F
6HR MIN TEMP:  53; 6HR MAX TEMP:  54;

CHICAGO-MIDWAY CLOUDY    55  46  71 SW5       30.05S
6HR MIN TEMP:  54; 6HR MAX TEMP:  56;

AURORA         CLOUDY    46  43  89 W3        30.07R FOG
6HR MIN TEMP:  46; 6HR MAX TEMP:  53;

WAUKEGAN       CLOUDY    49  46  90 CALM      30.04F
6HR MIN TEMP:  43; 6HR MAX TEMP:  52;

DUPAGE AIRPORT CLOUDY    50  45  83 CALM      30.05S
6HR MIN TEMP:  50; 6HR MAX TEMP:  53;

WHEELING       CLOUDY    53  45  74 CALM      30.06S
6HR MIN TEMP:  49; 6HR MAX TEMP:  56;

NORTHERLY ISL    N/A     54  45  71 W6          N/A
$$

LMZ740>746-241300-
SOUTHERN LAKE MICHIGAN

STATION/POSITION SKY/WX   TEMP    WIND        PRES    VSBY  WAVE
                          AIR SEA DIR/SP/G                  HT/PER
                          (F)     (DEG/KT/KT) (MB)    (MI)  (FT/S)
SOUTHERN BUOY              54 54  270/  8/ 10 1017.4F         1/ 3
WAUKEGAN HARBOR            51     280/  5/  8   N/A
HARRISON CRIB              55     200/  5/  6   N/A
BURNHAM HARBOR             54     240/  3/  5   N/A
CALUMET HARBOR             53     210/  3/  4 1016.4F
MICHIGAN CITY              53     160/  5/  7   N/A
$$

ILZ025>027-034>036-040-047-049-050-058-095>099-241300-
WEST-CENTRAL ILLINOIS

CITY           SKY/WX    TMP DP  RH WIND       PRES   REMARKS
QUINCY         FOG       55  54  96 CALM      30.07S VSB 1/4
$$

ILZ028>032-037-038-041>044-048-051>054-059>061-241300-
CENTRAL ILLINOIS

CITY           SKY/WX    TMP DP  RH WIND       PRES   REMARKS
DECATUR        CLEAR     48  44  86 SW5       30.08F
PEORIA         PTCLDY    46  42  86 CALM      30.08R FOG
6HR MIN TEMP:  46; 6HR MAX TEMP:  56;

SPRINGFIELD    FOG       54  53  97 CALM      30.09R VSB 1/2
6HR MIN TEMP:  47; 6HR MAX TEMP:  54;

TAYLORVILLE    NOT AVBL
$$

ILZ033-039-045-046-055>057-062-063-241300-
EAST-CENTRAL ILLINOIS

CITY           SKY/WX    TMP DP  RH WIND       PRES   REMARKS
CHAMPAIGN      PTCLDY    47  45  93 S6        30.08F
MATTOON        PTCLDY    50  44  80 S6        30.08F
$$

ILZ079-100>102-241300-
SOUTHWEST ILLINOIS

CITY           SKY/WX    TMP DP  RH WIND       PRES   REMARKS
ALTON          PTCLDY    50  46  87 SW3       30.09F
BELLEVILLE     PTCLDY    48  48  99 CALM      30.09S
CAHOKIA*       CLEAR     49  47  93 CALM      30.10R
$$

ILZ064>066-069>071-074>076-080>082-084>086-088>090-092>094-241300-
SOUTH-CENTRAL ILLINOIS

CITY           SKY/WX    TMP DP  RH WIND       PRES   REMARKS
CARBONDALE     CLOUDY    52  48  86 CALM      30.12R
6HR MIN TEMP:  45; 6HR MAX TEMP:  52; 6HR PCP: TRACE;

MARION         MOCLDY    50  46  87 S6        30.12S
MT. VERNON     CLOUDY    48  45  87 CALM      30.12S
$$

ILZ067-068-072-073-078-083-087-091-241300-
SOUTHEAST ILLINOIS

CITY           SKY/WX    TMP DP  RH WIND       PRES   REMARKS
LAWRENCEVILLE  CLOUDY    51  48  89 SE5       30.11F
$$

ABBREVIATIONS USED IN REMARKS
   TC - TEMPERATURE IN CELSIUS
  WCI - WIND CHILL INDEX
   HX - HEAT INDEX
  VSB - VISIBILITY
$$




USA.gov is the U.S. government's official web portal to all federal, state and local government web resources and services.